Year,Month,Day,Hour,Minute,Value (Times are PST for temperature in C)
2018,08,08,00,00,20.40
2018,08,08,00,01,20.40
2018,08,08,00,02,20.40
2018,08,08,00,03,20.30
2018,08,08,00,04,20.30
2018,08,08,00,05,20.30
2018,08,08,00,06,20.30
2018,08,08,00,07,20.30
2018,08,08,00,08,20.30
2018,08,08,00,09,20.20
2018,08,08,00,10,20.20
2018,08,08,00,11,20.20
2018,08,08,00,12,20.20
2018,08,08,00,13,20.20
2018,08,08,00,14,20.20
2018,08,08,00,15,20.20
2018,08,08,00,16,20.10
2018,08,08,00,17,20.10
2018,08,08,00,18,20.10
2018,08,08,00,19,20.10
2018,08,08,00,20,20.10
2018,08,08,00,21,20.10
2018,08,08,00,22,20.10
2018,08,08,00,23,20.10
2018,08,08,00,24,20.10
2018,08,08,00,25,20.10
2018,08,08,00,26,20.10
2018,08,08,00,27,20.10
2018,08,08,00,28,20.00
2018,08,08,00,29,20.00
2018,08,08,00,30,20.00
2018,08,08,00,31,20.00
2018,08,08,00,32,20.00
2018,08,08,00,33,20.00
2018,08,08,00,34,20.00
2018,08,08,00,35,19.90
2018,08,08,00,36,19.90
2018,08,08,00,37,19.90
2018,08,08,00,38,19.90
2018,08,08,00,39,19.90
2018,08,08,00,40,19.90
2018,08,08,00,41,19.90
2018,08,08,00,42,19.90
2018,08,08,00,43,19.80
2018,08,08,00,44,19.80
2018,08,08,00,45,19.80
2018,08,08,00,46,19.80
2018,08,08,00,47,19.80
2018,08,08,00,48,19.80
2018,08,08,00,49,19.80
2018,08,08,00,50,19.80
2018,08,08,00,51,19.80
2018,08,08,00,52,19.80
2018,08,08,00,53,19.80
2018,08,08,00,54,19.80
2018,08,08,00,55,19.80
2018,08,08,00,56,19.80
2018,08,08,00,57,19.70
2018,08,08,00,58,19.70
2018,08,08,00,59,19.70
2018,08,08,01,00,19.70
2018,08,08,01,01,19.70
2018,08,08,01,02,19.70
2018,08,08,01,03,19.70
2018,08,08,01,04,19.70
2018,08,08,01,05,19.70
2018,08,08,01,06,19.70
2018,08,08,01,07,19.60
2018,08,08,01,08,19.60
2018,08,08,01,09,19.60
2018,08,08,01,10,19.60
2018,08,08,01,11,19.60
2018,08,08,01,12,19.60
2018,08,08,01,13,19.60
2018,08,08,01,14,19.60
2018,08,08,01,15,19.60
2018,08,08,01,16,19.60
2018,08,08,01,17,19.60
2018,08,08,01,18,19.60
2018,08,08,01,19,19.50
2018,08,08,01,20,19.50
2018,08,08,01,21,19.50
2018,08,08,01,22,19.50
2018,08,08,01,23,19.50
2018,08,08,01,24,19.50
2018,08,08,01,25,19.40
2018,08,08,01,26,19.50
2018,08,08,01,27,19.40
2018,08,08,01,28,19.40
2018,08,08,01,29,19.40
2018,08,08,01,30,19.50
2018,08,08,01,31,19.40
2018,08,08,01,32,19.40
2018,08,08,01,33,19.40
2018,08,08,01,34,19.40
2018,08,08,01,35,19.40
2018,08,08,01,36,19.40
2018,08,08,01,37,19.40
2018,08,08,01,38,19.40
2018,08,08,01,39,19.40
2018,08,08,01,40,19.40
2018,08,08,01,41,19.40
2018,08,08,01,42,19.40
2018,08,08,01,43,19.40
2018,08,08,01,44,19.40
2018,08,08,01,45,19.40
2018,08,08,01,46,19.40
2018,08,08,01,47,19.40
2018,08,08,01,48,19.40
2018,08,08,01,49,19.40
2018,08,08,01,50,19.40
2018,08,08,01,51,19.40
2018,08,08,01,52,19.40
2018,08,08,01,53,19.40
2018,08,08,01,54,19.40
2018,08,08,01,55,19.40
2018,08,08,01,56,19.40
2018,08,08,01,57,19.40
2018,08,08,01,58,19.40
2018,08,08,01,59,19.30
2018,08,08,02,00,19.30
2018,08,08,02,01,19.30
2018,08,08,02,02,19.30
2018,08,08,02,03,19.30
2018,08,08,02,04,19.30
2018,08,08,02,05,19.30
2018,08,08,02,06,19.30
2018,08,08,02,07,19.30
2018,08,08,02,08,19.30
2018,08,08,02,09,19.20
2018,08,08,02,10,19.20
2018,08,08,02,11,19.20
2018,08,08,02,12,19.20
2018,08,08,02,13,19.20
2018,08,08,02,14,19.20
2018,08,08,02,15,19.20
2018,08,08,02,16,19.20
2018,08,08,02,17,19.20
2018,08,08,02,18,19.20
2018,08,08,02,19,19.20
2018,08,08,02,20,19.20
2018,08,08,02,21,19.20
2018,08,08,02,22,19.20
2018,08,08,02,23,19.20
2018,08,08,02,24,19.20
2018,08,08,02,25,19.20
2018,08,08,02,26,19.20
2018,08,08,02,27,19.20
2018,08,08,02,28,19.20
2018,08,08,02,29,19.20
2018,08,08,02,30,19.20
2018,08,08,02,31,19.20
2018,08,08,02,32,19.20
2018,08,08,02,33,19.20
2018,08,08,02,34,19.20
2018,08,08,02,35,19.10
2018,08,08,02,36,19.10
2018,08,08,02,37,19.10
2018,08,08,02,38,19.10
2018,08,08,02,39,19.10
2018,08,08,02,40,19.10
2018,08,08,02,41,19.10
2018,08,08,02,42,19.10
2018,08,08,02,43,19.10
2018,08,08,02,44,19.10
2018,08,08,02,45,19.10
2018,08,08,02,46,19.10
2018,08,08,02,47,19.10
2018,08,08,02,48,19.10
2018,08,08,02,49,19.10
2018,08,08,02,50,19.10
2018,08,08,02,51,19.10
2018,08,08,02,52,19.00
2018,08,08,02,53,19.00
2018,08,08,02,54,19.00
2018,08,08,02,55,18.90
2018,08,08,02,56,18.90
2018,08,08,02,57,18.90
2018,08,08,02,58,18.90
2018,08,08,02,59,18.90
2018,08,08,03,00,18.80
2018,08,08,03,01,18.80
2018,08,08,03,02,18.80
2018,08,08,03,03,18.70
2018,08,08,03,04,18.70
2018,08,08,03,05,18.70
2018,08,08,03,06,18.70
2018,08,08,03,07,18.70
2018,08,08,03,08,18.60
2018,08,08,03,09,18.60
2018,08,08,03,10,18.60
2018,08,08,03,11,18.60
2018,08,08,03,12,18.60
2018,08,08,03,13,18.50
2018,08,08,03,14,18.50
2018,08,08,03,15,18.50
2018,08,08,03,16,18.40
2018,08,08,03,17,18.40
2018,08,08,03,18,18.40
2018,08,08,03,19,18.40
2018,08,08,03,20,18.40
2018,08,08,03,21,18.30
2018,08,08,03,22,18.30
2018,08,08,03,23,18.30
2018,08,08,03,24,18.30
2018,08,08,03,25,18.30
2018,08,08,03,26,18.30
2018,08,08,03,27,18.20
2018,08,08,03,28,18.20
2018,08,08,03,29,18.20
2018,08,08,03,30,18.20
2018,08,08,03,31,18.20
2018,08,08,03,32,18.20
2018,08,08,03,33,18.10
2018,08,08,03,34,18.10
2018,08,08,03,35,18.10
2018,08,08,03,36,18.10
2018,08,08,03,37,18.10
2018,08,08,03,38,18.10
2018,08,08,03,39,18.00
2018,08,08,03,40,18.00
2018,08,08,03,41,18.00
2018,08,08,03,42,18.00
2018,08,08,03,43,17.90
2018,08,08,03,44,17.90
2018,08,08,03,45,17.90
2018,08,08,03,46,17.90
2018,08,08,03,47,17.90
2018,08,08,03,48,17.90
2018,08,08,03,49,17.90
2018,08,08,03,50,17.80
2018,08,08,03,51,17.80
2018,08,08,03,52,17.80
2018,08,08,03,53,17.80
2018,08,08,03,54,17.80
2018,08,08,03,55,17.80
2018,08,08,03,56,17.80
2018,08,08,03,57,17.80
2018,08,08,03,58,17.80
2018,08,08,03,59,17.80
2018,08,08,04,00,17.80
2018,08,08,04,01,17.80
2018,08,08,04,02,17.80
2018,08,08,04,03,17.80
2018,08,08,04,04,17.80
2018,08,08,04,05,17.80
2018,08,08,04,06,17.80
2018,08,08,04,07,17.80
2018,08,08,04,08,17.80
2018,08,08,04,09,17.80
2018,08,08,04,10,17.80
2018,08,08,04,11,17.80
2018,08,08,04,12,17.80
2018,08,08,04,13,17.80
2018,08,08,04,14,17.80
2018,08,08,04,15,17.80
2018,08,08,04,16,17.80
2018,08,08,04,17,17.80
2018,08,08,04,18,17.80
2018,08,08,04,19,17.80
2018,08,08,04,20,17.80
2018,08,08,04,21,17.80
2018,08,08,04,22,17.80
2018,08,08,04,23,17.80
2018,08,08,04,24,17.80
2018,08,08,04,25,17.80
2018,08,08,04,26,17.80
2018,08,08,04,27,17.80
2018,08,08,04,28,17.80
2018,08,08,04,29,17.80
2018,08,08,04,30,17.80
2018,08,08,04,31,17.80
2018,08,08,04,32,17.80
2018,08,08,04,33,17.80
2018,08,08,04,34,17.80
2018,08,08,04,35,17.80
2018,08,08,04,36,17.80
2018,08,08,04,37,17.70
2018,08,08,04,38,17.70
2018,08,08,04,39,17.70
2018,08,08,04,40,17.70
2018,08,08,04,41,17.70
2018,08,08,04,42,17.70
2018,08,08,04,43,17.70
2018,08,08,04,44,17.70
2018,08,08,04,45,17.70
2018,08,08,04,46,17.70
2018,08,08,04,47,17.70
2018,08,08,04,48,17.60
2018,08,08,04,49,17.60
2018,08,08,04,50,17.60
2018,08,08,04,51,17.60
2018,08,08,04,52,17.60
2018,08,08,04,53,17.60
2018,08,08,04,54,17.60
2018,08,08,04,55,17.60
2018,08,08,04,56,17.60
2018,08,08,04,57,17.60
2018,08,08,04,58,17.60
2018,08,08,04,59,17.60
2018,08,08,05,00,17.60
2018,08,08,05,01,17.60
2018,08,08,05,02,17.60
2018,08,08,05,03,17.60
2018,08,08,05,04,17.60
2018,08,08,05,05,17.60
2018,08,08,05,06,17.60
2018,08,08,05,07,17.60
2018,08,08,05,08,17.60
2018,08,08,05,09,17.60
2018,08,08,05,10,17.60
2018,08,08,05,11,17.60
2018,08,08,05,12,17.60
2018,08,08,05,13,17.60
2018,08,08,05,14,17.50
2018,08,08,05,15,17.50
2018,08,08,05,16,17.50
2018,08,08,05,17,17.50
2018,08,08,05,18,17.50
2018,08,08,05,19,17.40
2018,08,08,05,20,17.40
2018,08,08,05,21,17.40
2018,08,08,05,22,17.40
2018,08,08,05,23,17.40
2018,08,08,05,24,17.40
2018,08,08,05,25,17.30
2018,08,08,05,26,17.30
2018,08,08,05,27,17.30
2018,08,08,05,28,17.30
2018,08,08,05,29,17.30
2018,08,08,05,30,17.30
2018,08,08,05,31,17.30
2018,08,08,05,32,17.20
2018,08,08,05,33,17.20
2018,08,08,05,34,17.20
2018,08,08,05,35,17.20
2018,08,08,05,36,17.20
2018,08,08,05,37,17.20
2018,08,08,05,38,17.20
2018,08,08,05,39,17.20
2018,08,08,05,40,17.20
2018,08,08,05,41,17.20
2018,08,08,05,42,17.20
2018,08,08,05,43,17.10
2018,08,08,05,44,17.10
2018,08,08,05,45,17.10
2018,08,08,05,46,17.10
2018,08,08,05,47,17.10
2018,08,08,05,48,17.10
2018,08,08,05,49,17.00
2018,08,08,05,50,17.00
2018,08,08,05,51,17.00
2018,08,08,05,52,16.90
2018,08,08,05,53,16.90
2018,08,08,05,54,16.90
2018,08,08,05,55,16.90
2018,08,08,05,56,16.90
2018,08,08,05,57,16.90
2018,08,08,05,58,16.90
2018,08,08,05,59,16.90
2018,08,08,06,00,16.80
2018,08,08,06,01,16.80
2018,08,08,06,02,16.80
2018,08,08,06,03,16.80
2018,08,08,06,04,16.80
2018,08,08,06,05,16.80
2018,08,08,06,06,16.70
2018,08,08,06,07,16.70
2018,08,08,06,08,16.70
2018,08,08,06,09,16.70
2018,08,08,06,10,16.70
2018,08,08,06,11,16.70
2018,08,08,06,12,16.70
2018,08,08,06,13,16.70
2018,08,08,06,14,16.70
2018,08,08,06,15,16.70
2018,08,08,06,16,16.70
2018,08,08,06,17,16.70
2018,08,08,06,18,16.70
2018,08,08,06,19,16.70
2018,08,08,06,20,16.70
2018,08,08,06,21,16.70
2018,08,08,06,22,16.70
2018,08,08,06,23,16.70
2018,08,08,06,24,16.70
2018,08,08,06,25,16.70
2018,08,08,06,26,16.70
2018,08,08,06,27,16.70
2018,08,08,06,28,16.60
2018,08,08,06,29,16.60
2018,08,08,06,30,16.60
2018,08,08,06,31,16.60
2018,08,08,06,32,16.60
2018,08,08,06,33,16.60
2018,08,08,06,34,16.60
2018,08,08,06,35,16.60
2018,08,08,06,36,16.50
2018,08,08,06,37,16.50
2018,08,08,06,38,16.50
2018,08,08,06,39,16.50
2018,08,08,06,40,16.40
2018,08,08,06,41,16.40
2018,08,08,06,42,16.40
2018,08,08,06,43,16.40
2018,08,08,06,44,16.40
2018,08,08,06,45,16.40
2018,08,08,06,46,16.40
2018,08,08,06,47,16.40
2018,08,08,06,48,16.40
2018,08,08,06,49,16.40
2018,08,08,06,50,16.40
2018,08,08,06,51,16.40
2018,08,08,06,52,16.40
2018,08,08,06,53,16.40
2018,08,08,06,54,16.40
2018,08,08,06,55,16.40
2018,08,08,06,56,16.50
2018,08,08,06,57,16.50
2018,08,08,06,58,16.50
2018,08,08,06,59,16.50
2018,08,08,07,00,16.50
2018,08,08,07,01,16.60
2018,08,08,07,02,16.60
2018,08,08,07,03,16.60
2018,08,08,07,04,16.60
2018,08,08,07,05,16.60
2018,08,08,07,06,16.70
2018,08,08,07,07,16.70
2018,08,08,07,08,16.70
2018,08,08,07,09,16.70
2018,08,08,07,10,16.70
2018,08,08,07,11,16.80
2018,08,08,07,12,16.80
2018,08,08,07,13,16.80
2018,08,08,07,14,16.90
2018,08,08,07,15,16.90
2018,08,08,07,16,16.90
2018,08,08,07,17,17.00
2018,08,08,07,18,17.00
2018,08,08,07,19,17.10
2018,08,08,07,20,17.10
2018,08,08,07,21,17.20
2018,08,08,07,22,17.20
2018,08,08,07,23,17.30
2018,08,08,07,24,17.30
2018,08,08,07,25,17.30
2018,08,08,07,26,17.30
2018,08,08,07,27,17.40
2018,08,08,07,28,17.40
2018,08,08,07,29,17.50
2018,08,08,07,30,17.50
2018,08,08,07,31,17.50
2018,08,08,07,32,17.60
2018,08,08,07,33,17.60
2018,08,08,07,34,17.60
2018,08,08,07,35,17.60
2018,08,08,07,36,17.70
2018,08,08,07,37,17.70
2018,08,08,07,38,17.70
2018,08,08,07,39,17.70
2018,08,08,07,40,17.80
2018,08,08,07,41,17.80
2018,08,08,07,42,17.80
2018,08,08,07,43,17.80
2018,08,08,07,44,17.90
2018,08,08,07,45,17.90
2018,08,08,07,46,17.90
2018,08,08,07,47,18.00
2018,08,08,07,48,18.00
2018,08,08,07,49,18.10
2018,08,08,07,50,18.10
2018,08,08,07,51,18.10
2018,08,08,07,52,18.20
2018,08,08,07,53,18.30
2018,08,08,07,54,18.40
2018,08,08,07,55,18.40
2018,08,08,07,56,18.50
2018,08,08,07,57,18.60
2018,08,08,07,58,18.60
2018,08,08,07,59,18.70
2018,08,08,08,00,18.70
2018,08,08,08,01,18.80
2018,08,08,08,02,18.80
2018,08,08,08,03,18.80
2018,08,08,08,04,18.80
2018,08,08,08,05,18.90
2018,08,08,08,06,18.90
2018,08,08,08,07,18.90
2018,08,08,08,08,18.90
2018,08,08,08,09,19.00
2018,08,08,08,10,19.00
2018,08,08,08,11,19.10
2018,08,08,08,12,19.10
2018,08,08,08,13,19.10
2018,08,08,08,14,19.10
2018,08,08,08,15,19.20
2018,08,08,08,16,19.20
2018,08,08,08,17,19.30
2018,08,08,08,18,19.30
2018,08,08,08,19,19.40
2018,08,08,08,20,19.40
2018,08,08,08,21,19.50
2018,08,08,08,22,19.50
2018,08,08,08,23,19.60
2018,08,08,08,24,19.60
2018,08,08,08,25,19.70
2018,08,08,08,26,19.70
2018,08,08,08,27,19.70
2018,08,08,08,28,19.80
2018,08,08,08,29,19.80
2018,08,08,08,30,19.80
2018,08,08,08,31,19.90
2018,08,08,08,32,19.90
2018,08,08,08,33,19.90
2018,08,08,08,34,20.00
2018,08,08,08,35,20.10
2018,08,08,08,36,20.10
2018,08,08,08,37,20.20
2018,08,08,08,38,20.20
2018,08,08,08,39,20.20
2018,08,08,08,40,20.30
2018,08,08,08,41,20.30
2018,08,08,08,42,20.40
2018,08,08,08,43,20.40
2018,08,08,08,44,20.50
2018,08,08,08,45,20.50
2018,08,08,08,46,20.60
2018,08,08,08,47,20.60
2018,08,08,08,48,20.70
2018,08,08,08,49,20.80
2018,08,08,08,50,20.80
2018,08,08,08,51,20.90
2018,08,08,08,52,20.90
2018,08,08,08,53,21.00
2018,08,08,08,54,21.10
2018,08,08,08,55,21.10
2018,08,08,08,56,21.10
2018,08,08,08,57,21.20
2018,08,08,08,58,21.30
2018,08,08,08,59,21.30
2018,08,08,09,00,21.40
2018,08,08,09,01,21.50
2018,08,08,09,02,21.60
2018,08,08,09,03,21.70
2018,08,08,09,04,21.80
2018,08,08,09,05,21.80
2018,08,08,09,06,21.90
2018,08,08,09,07,21.90
2018,08,08,09,08,22.00
2018,08,08,09,09,22.10
2018,08,08,09,10,22.20
2018,08,08,09,11,22.30
2018,08,08,09,12,22.30
2018,08,08,09,13,22.40
2018,08,08,09,14,22.50
2018,08,08,09,15,22.60
2018,08,08,09,16,22.60
2018,08,08,09,17,22.70
2018,08,08,09,18,22.80
2018,08,08,09,19,22.80
2018,08,08,09,20,22.90
2018,08,08,09,21,22.80
2018,08,08,09,22,22.90
2018,08,08,09,23,23.00
2018,08,08,09,24,23.00
2018,08,08,09,25,23.10
2018,08,08,09,26,23.10
2018,08,08,09,27,23.20
2018,08,08,09,28,23.20
2018,08,08,09,29,23.30
2018,08,08,09,30,23.30
2018,08,08,09,31,23.40
2018,08,08,09,32,23.40
2018,08,08,09,33,23.40
2018,08,08,09,34,23.50
2018,08,08,09,35,23.50
2018,08,08,09,36,23.50
2018,08,08,09,37,23.50
2018,08,08,09,38,23.50
2018,08,08,09,39,23.50
2018,08,08,09,40,23.60
2018,08,08,09,41,23.60
2018,08,08,09,42,23.60
2018,08,08,09,43,23.60
2018,08,08,09,44,23.60
2018,08,08,09,45,23.70
2018,08,08,09,46,23.70
2018,08,08,09,47,23.70
2018,08,08,09,48,23.70
2018,08,08,09,49,23.80
2018,08,08,09,50,23.80
2018,08,08,09,51,23.80
2018,08,08,09,52,23.90
2018,08,08,09,53,23.90
2018,08,08,09,54,24.00
2018,08,08,09,55,24.00
2018,08,08,09,56,24.10
2018,08,08,09,57,24.10
2018,08,08,09,58,24.10
2018,08,08,09,59,24.10
2018,08,08,10,00,24.20
2018,08,08,10,01,24.20
2018,08,08,10,02,24.20
2018,08,08,10,03,24.20
2018,08,08,10,04,24.20
2018,08,08,10,05,24.20
2018,08,08,10,06,24.20
2018,08,08,10,07,24.20
2018,08,08,10,08,24.20
2018,08,08,10,09,24.10
2018,08,08,10,10,24.10
2018,08,08,10,11,24.10
2018,08,08,10,12,24.10
2018,08,08,10,13,24.20
2018,08,08,10,14,24.20
2018,08,08,10,15,24.20
2018,08,08,10,16,24.20
2018,08,08,10,17,24.20
2018,08,08,10,18,24.20
2018,08,08,10,19,24.30
2018,08,08,10,20,24.30
2018,08,08,10,21,24.30
2018,08,08,10,22,24.40
2018,08,08,10,23,24.40
2018,08,08,10,24,24.50
2018,08,08,10,25,24.60
2018,08,08,10,26,24.70
2018,08,08,10,27,24.70
2018,08,08,10,28,24.80
2018,08,08,10,29,24.80
2018,08,08,10,30,24.80
2018,08,08,10,31,24.90
2018,08,08,10,32,24.90
2018,08,08,10,33,24.90
2018,08,08,10,34,24.90
2018,08,08,10,35,24.90
2018,08,08,10,36,25.00
2018,08,08,10,37,25.10
2018,08,08,10,38,25.10
2018,08,08,10,39,25.20
2018,08,08,10,40,25.20
2018,08,08,10,41,25.30
2018,08,08,10,42,25.30
2018,08,08,10,43,25.30
2018,08,08,10,44,25.40
2018,08,08,10,45,25.40
2018,08,08,10,46,25.50
2018,08,08,10,47,25.60
2018,08,08,10,48,25.70
2018,08,08,10,49,25.70
2018,08,08,10,50,25.70
2018,08,08,10,51,25.70
2018,08,08,10,52,25.70
2018,08,08,10,53,25.70
2018,08,08,10,54,25.80
2018,08,08,10,55,25.80
2018,08,08,10,56,25.80
2018,08,08,10,57,25.80
2018,08,08,10,58,25.90
2018,08,08,10,59,25.90
2018,08,08,11,00,25.90
2018,08,08,11,01,25.90
2018,08,08,11,02,26.00
2018,08,08,11,03,26.00
2018,08,08,11,04,25.90
2018,08,08,11,05,25.90
2018,08,08,11,06,25.90
2018,08,08,11,07,25.90
2018,08,08,11,08,25.90
2018,08,08,11,09,25.90
2018,08,08,11,10,26.00
2018,08,08,11,11,26.00
2018,08,08,11,12,26.10
2018,08,08,11,13,26.10
2018,08,08,11,14,26.10
2018,08,08,11,15,26.20
2018,08,08,11,16,26.20
2018,08,08,11,17,26.30
2018,08,08,11,18,26.30
2018,08,08,11,19,26.40
2018,08,08,11,20,26.40
2018,08,08,11,21,26.40
2018,08,08,11,22,26.40
2018,08,08,11,23,26.40
2018,08,08,11,24,26.40
2018,08,08,11,25,26.40
2018,08,08,11,26,26.40
2018,08,08,11,27,26.30
2018,08,08,11,28,26.20
2018,08,08,11,29,26.10
2018,08,08,11,30,26.00
2018,08,08,11,31,25.90
2018,08,08,11,32,25.90
2018,08,08,11,33,25.90
2018,08,08,11,34,25.80
2018,08,08,11,35,25.80
2018,08,08,11,36,25.80
2018,08,08,11,37,25.80
2018,08,08,11,38,25.90
2018,08,08,11,39,25.90
2018,08,08,11,40,26.00
2018,08,08,11,41,26.00
2018,08,08,11,42,26.10
2018,08,08,11,43,26.10
2018,08,08,11,44,26.20
2018,08,08,11,45,26.30
2018,08,08,11,46,26.40
2018,08,08,11,47,26.40
2018,08,08,11,48,26.40
2018,08,08,11,49,26.30
2018,08,08,11,50,26.30
2018,08,08,11,51,26.20
2018,08,08,11,52,26.20
2018,08,08,11,53,26.20
2018,08,08,11,54,26.20
2018,08,08,11,55,26.20
2018,08,08,11,56,26.20
2018,08,08,11,57,26.30
2018,08,08,11,58,26.30
2018,08,08,11,59,26.40
2018,08,08,12,00,26.40
2018,08,08,12,01,26.40
2018,08,08,12,02,26.40
2018,08,08,12,03,26.40
2018,08,08,12,04,26.40
2018,08,08,12,05,26.40
2018,08,08,12,06,26.40
2018,08,08,12,07,26.40
2018,08,08,12,08,26.40
2018,08,08,12,09,26.40
2018,08,08,12,10,26.40
2018,08,08,12,11,26.40
2018,08,08,12,12,26.40
2018,08,08,12,13,26.40
2018,08,08,12,14,26.40
2018,08,08,12,15,26.40
2018,08,08,12,16,26.40
2018,08,08,12,17,26.40
2018,08,08,12,18,26.40
2018,08,08,12,19,26.40
2018,08,08,12,20,26.30
2018,08,08,12,21,26.30
2018,08,08,12,22,26.30
2018,08,08,12,23,26.30
2018,08,08,12,24,26.30
2018,08,08,12,25,26.30
2018,08,08,12,26,26.30
2018,08,08,12,27,26.30
2018,08,08,12,28,26.30
2018,08,08,12,29,26.30
2018,08,08,12,30,26.40
2018,08,08,12,31,26.60
2018,08,08,12,32,26.70
2018,08,08,12,33,26.80
2018,08,08,12,34,26.80
2018,08,08,12,35,26.80
2018,08,08,12,36,26.80
2018,08,08,12,37,26.80
2018,08,08,12,38,26.80
2018,08,08,12,39,26.80
2018,08,08,12,40,26.80
2018,08,08,12,41,26.90
2018,08,08,12,42,26.90
2018,08,08,12,43,27.00
2018,08,08,12,44,27.10
2018,08,08,12,45,27.10
2018,08,08,12,46,27.10
2018,08,08,12,47,27.10
2018,08,08,12,48,27.10
2018,08,08,12,49,27.10
2018,08,08,12,50,27.10
2018,08,08,12,51,27.10
2018,08,08,12,52,27.20
2018,08,08,12,53,27.20
2018,08,08,12,54,27.20
2018,08,08,12,55,27.20
2018,08,08,12,56,27.10
2018,08,08,12,57,27.20
2018,08,08,12,58,27.20
2018,08,08,12,59,27.20
2018,08,08,13,00,27.20
2018,08,08,13,01,27.20
2018,08,08,13,02,27.10
2018,08,08,13,03,27.10
2018,08,08,13,04,27.00
2018,08,08,13,05,27.00
2018,08,08,13,06,26.90
2018,08,08,13,07,26.90
2018,08,08,13,08,26.80
2018,08,08,13,09,26.80
2018,08,08,13,10,26.80
2018,08,08,13,11,26.80
2018,08,08,13,12,26.80
2018,08,08,13,13,26.80
2018,08,08,13,14,26.90
2018,08,08,13,15,27.00
2018,08,08,13,16,27.10
2018,08,08,13,17,27.20
2018,08,08,13,18,27.20
2018,08,08,13,19,27.20
2018,08,08,13,20,27.20
2018,08,08,13,21,27.30
2018,08,08,13,22,27.30
2018,08,08,13,23,27.30
2018,08,08,13,24,27.40
2018,08,08,13,25,27.40
2018,08,08,13,26,27.50
2018,08,08,13,27,27.50
2018,08,08,13,28,27.50
2018,08,08,13,29,27.50
2018,08,08,13,30,27.50
2018,08,08,13,31,27.50
2018,08,08,13,32,27.50
2018,08,08,13,33,27.50
2018,08,08,13,34,27.60
2018,08,08,13,35,27.60
2018,08,08,13,36,27.50
2018,08,08,13,37,27.50
2018,08,08,13,38,27.40
2018,08,08,13,39,27.40
2018,08,08,13,40,27.50
2018,08,08,13,41,27.50
2018,08,08,13,42,27.60
2018,08,08,13,43,27.70
2018,08,08,13,44,27.70
2018,08,08,13,45,27.70
2018,08,08,13,46,27.70
2018,08,08,13,47,27.70
2018,08,08,13,48,27.70
2018,08,08,13,49,27.70
2018,08,08,13,50,27.70
2018,08,08,13,51,27.80
2018,08,08,13,52,27.90
2018,08,08,13,53,27.90
2018,08,08,13,54,28.00
2018,08,08,13,55,28.00
2018,08,08,13,56,28.00
2018,08,08,13,57,28.00
2018,08,08,13,58,28.00
2018,08,08,13,59,28.00
2018,08,08,14,00,28.00
2018,08,08,14,01,28.00
2018,08,08,14,02,28.10
2018,08,08,14,03,28.10
2018,08,08,14,04,28.20
2018,08,08,14,05,28.20
2018,08,08,14,06,28.20
2018,08,08,14,07,28.30
2018,08,08,14,08,28.20
2018,08,08,14,09,28.30
2018,08,08,14,10,28.30
2018,08,08,14,11,28.40
2018,08,08,14,12,28.40
2018,08,08,14,13,28.50
2018,08,08,14,14,28.50
2018,08,08,14,15,28.60
2018,08,08,14,16,28.60
2018,08,08,14,17,28.60
2018,08,08,14,18,28.60
2018,08,08,14,19,28.70
2018,08,08,14,20,28.70
2018,08,08,14,21,28.80
2018,08,08,14,22,28.80
2018,08,08,14,23,28.90
2018,08,08,14,24,28.90
2018,08,08,14,25,28.90
2018,08,08,14,26,28.90
2018,08,08,14,27,28.90
2018,08,08,14,28,28.90
2018,08,08,14,29,29.00
2018,08,08,14,30,29.10
2018,08,08,14,31,29.10
2018,08,08,14,32,29.10
2018,08,08,14,33,29.20
2018,08,08,14,34,29.20
2018,08,08,14,35,29.20
2018,08,08,14,36,29.20
2018,08,08,14,37,29.30
2018,08,08,14,38,29.30
2018,08,08,14,39,29.40
2018,08,08,14,40,29.40
2018,08,08,14,41,29.40
2018,08,08,14,42,29.40
2018,08,08,14,43,29.40
2018,08,08,14,44,29.50
2018,08,08,14,45,29.50
2018,08,08,14,46,29.50
2018,08,08,14,47,29.40
2018,08,08,14,48,29.40
2018,08,08,14,49,29.50
2018,08,08,14,50,29.50
2018,08,08,14,51,29.50
2018,08,08,14,52,29.50
2018,08,08,14,53,29.50
2018,08,08,14,54,29.50
2018,08,08,14,55,29.60
2018,08,08,14,56,29.60
2018,08,08,14,57,29.60
2018,08,08,14,58,29.60
2018,08,08,14,59,29.70
2018,08,08,15,00,29.70
2018,08,08,15,01,29.80
2018,08,08,15,02,29.90
2018,08,08,15,03,29.90
2018,08,08,15,04,29.90
2018,08,08,15,05,29.90
2018,08,08,15,06,29.90
2018,08,08,15,07,29.90
2018,08,08,15,08,29.90
2018,08,08,15,09,29.90
2018,08,08,15,10,30.10
2018,08,08,15,11,30.20
2018,08,08,15,12,30.30
2018,08,08,15,13,30.40
2018,08,08,15,14,30.50
2018,08,08,15,15,30.60
2018,08,08,15,16,30.70
2018,08,08,15,17,30.70
2018,08,08,15,18,30.70
2018,08,08,15,19,30.70
2018,08,08,15,20,30.70
2018,08,08,15,21,30.80
2018,08,08,15,22,30.90
2018,08,08,15,23,30.90
2018,08,08,15,24,30.90
2018,08,08,15,25,30.90
2018,08,08,15,26,30.80
2018,08,08,15,27,30.70
2018,08,08,15,28,30.70
2018,08,08,15,29,30.70
2018,08,08,15,30,30.60
2018,08,08,15,31,30.60
2018,08,08,15,32,30.60
2018,08,08,15,33,30.60
2018,08,08,15,34,30.60
2018,08,08,15,35,30.60
2018,08,08,15,36,30.70
2018,08,08,15,37,30.80
2018,08,08,15,38,30.80
2018,08,08,15,39,30.90
2018,08,08,15,40,30.90
2018,08,08,15,41,30.90
2018,08,08,15,42,30.90
2018,08,08,15,43,30.90
2018,08,08,15,44,30.90
2018,08,08,15,45,30.90
2018,08,08,15,46,30.90
2018,08,08,15,47,30.90
2018,08,08,15,48,30.90
2018,08,08,15,49,30.90
2018,08,08,15,50,30.90
2018,08,08,15,51,31.00
2018,08,08,15,52,31.00
2018,08,08,15,53,31.10
2018,08,08,15,54,31.10
2018,08,08,15,55,31.20
2018,08,08,15,56,31.20
2018,08,08,15,57,31.30
2018,08,08,15,58,31.30
2018,08,08,15,59,31.30
2018,08,08,16,00,31.40
2018,08,08,16,01,31.40
2018,08,08,16,02,31.50
2018,08,08,16,03,31.60
2018,08,08,16,04,31.70
2018,08,08,16,05,31.70
2018,08,08,16,06,31.80
2018,08,08,16,07,31.80
2018,08,08,16,08,31.90
2018,08,08,16,09,32.00
2018,08,08,16,10,32.10
2018,08,08,16,11,32.10
2018,08,08,16,12,32.30
2018,08,08,16,13,32.30
2018,08,08,16,14,32.30
2018,08,08,16,15,32.30
2018,08,08,16,16,32.30
2018,08,08,16,17,32.30
2018,08,08,16,18,32.30
2018,08,08,16,19,32.30
2018,08,08,16,20,32.40
2018,08,08,16,21,32.40
2018,08,08,16,22,32.40
2018,08,08,16,23,32.30
2018,08,08,16,24,32.30
2018,08,08,16,25,32.40
2018,08,08,16,26,32.40
2018,08,08,16,27,32.50
2018,08,08,16,28,32.60
2018,08,08,16,29,32.70
2018,08,08,16,30,32.70
2018,08,08,16,31,32.70
2018,08,08,16,32,32.70
2018,08,08,16,33,32.70
2018,08,08,16,34,32.60
2018,08,08,16,35,32.50
2018,08,08,16,36,32.40
2018,08,08,16,37,32.40
2018,08,08,16,38,32.30
2018,08,08,16,39,32.30
2018,08,08,16,40,32.30
2018,08,08,16,41,32.30
2018,08,08,16,42,32.30
2018,08,08,16,43,32.30
2018,08,08,16,44,32.30
2018,08,08,16,45,32.30
2018,08,08,16,46,32.30
2018,08,08,16,47,32.30
2018,08,08,16,48,32.30
2018,08,08,16,49,32.40
2018,08,08,16,50,32.50
2018,08,08,16,51,32.60
2018,08,08,16,52,32.70
2018,08,08,16,53,32.70
2018,08,08,16,54,32.70
2018,08,08,16,55,32.70
2018,08,08,16,56,32.70
2018,08,08,16,57,32.60
2018,08,08,16,58,32.60
2018,08,08,16,59,32.60
2018,08,08,17,00,32.60
2018,08,08,17,01,32.50
2018,08,08,17,02,32.50
2018,08,08,17,03,32.40
2018,08,08,17,04,32.30
2018,08,08,17,05,32.20
2018,08,08,17,06,32.10
2018,08,08,17,07,32.00
2018,08,08,17,08,31.90
2018,08,08,17,09,31.80
2018,08,08,17,10,31.70
2018,08,08,17,11,31.70
2018,08,08,17,12,31.70
2018,08,08,17,13,31.60
2018,08,08,17,14,31.60
2018,08,08,17,15,31.60
2018,08,08,17,16,31.50
2018,08,08,17,17,31.50
2018,08,08,17,18,31.40
2018,08,08,17,19,31.40